New Paris, IN

12:17 AM EDT on September 30, 2016 (GMT -0400)
Goshen Municipal

Weather History for KGSH - December, 2010

Change the Weather History Date:

Thursday, December 23, 2010

  Actual Average Record
Temperature  
Mean Temperature 32 °F -  
Max Temperature 33 °F 33 °F 63 °F (2015)
Min Temperature 28 °F 20 °F -15 °F (1983)
Degree Days  
Heating Degree Days 34    
Moisture  
Dew Point 25 °F    
Average Humidity 80    
Maximum Humidity 88    
Minimum Humidity 70    
Precipitation  
Precipitation 0.00 in - - ()
Sea Level Pressure  
Sea Level Pressure 30.42 in    
Wind  
Wind Speed 7 mph (NNW)    
Max Wind Speed 10 mph    
Max Gust Speed -    
Visibility 10 miles    
Events      
Averages and records for this station are not official NWS values.
T = Trace of Precipitation, MM = Missing Value Source: NWS Daily Summary

Daily Weather History Graph

Daily Weather History Graph

Search for Another Location

Airport or City:

Trip Planner

Search our weather history database for the weather conditions in past years. The results will help you decide how hot, cold, wet, or windy it might be!

Date:

Astronomy

Dec. 23, 2010 Rise Set
Actual Time 8:07 AM EST 5:17 PM EST
Civil Twilight 7:35 AM EST 5:48 PM EST
Nautical Twilight 7:00 AM EST 6:23 PM EST
Astronomical Twilight 6:27 AM EST 6:57 PM EST
Moon 8:12 PM EST (12/23) 9:50 AM EST (12/23)
Length of Visible Light 10h 13m
Length of Day
9h 10m
Waning Gibbous, 93% of the Moon is Illuminated
Dec 23
Waning Gibbous
Dec 27
Last Quarter
Jan 4
New
Jan 12
First Quarter
Jan 19
Full

Hourly Weather History & Observations

Time (EST) Temp. Windchill Dew Point Humidity Pressure Visibility Wind Dir Wind Speed Gust Speed Precip Events Conditions
12:53 AM 30.0 °F - 26.1 °F 85% 30.40 in 10.0 mi North - - N/A   Overcast
1:53 AM 30.0 °F - 27.0 °F 88% 30.40 in 10.0 mi North - - N/A   Overcast
2:05 AM 30.2 °F - 26.6 °F 86% 30.36 in 10.0 mi North - - N/A   Overcast
2:53 AM 30.0 °F - 27.0 °F 88% 30.41 in 10.0 mi North - - N/A   Overcast
3:53 AM 30.0 °F - 27.0 °F 88% 30.41 in 10.0 mi North - - N/A   Overcast
4:53 AM 30.9 °F - 26.1 °F 82% 30.41 in 10.0 mi North - - N/A   Overcast
5:53 AM 30.9 °F - 25.0 °F 79% 30.42 in 10.0 mi North - - N/A   Overcast
6:16 AM 30.2 °F - 26.6 °F 86% 30.39 in 10.0 mi North - - N/A   Overcast
6:36 AM 30.2 °F - 24.8 °F 80% 30.39 in 10.0 mi North - - N/A   Overcast
6:53 AM 30.9 °F - 25.0 °F 79% 30.43 in 10.0 mi North - - N/A   Overcast
7:40 AM 30.2 °F - 24.8 °F 80% 30.40 in 10.0 mi North - - N/A   Overcast
7:53 AM 30.0 °F - 25.0 °F 82% 30.44 in 10.0 mi North - - N/A   Overcast
8:53 AM 30.9 °F - 25.0 °F 79% 30.45 in 10.0 mi North - - N/A   Overcast
9:53 AM 30.9 °F - 25.0 °F 79% 30.46 in 10.0 mi North - - N/A   Overcast
10:53 AM 32.0 °F - 25.0 °F 75% 30.47 in 10.0 mi North - - N/A   Overcast
11:16 AM 32.0 °F 25.6 °F 24.8 °F 75% 30.43 in - North 6.9 mph - N/A   Unknown
11:46 AM 32.0 °F 26.4 °F 24.8 °F 75% 30.42 in 10.0 mi NNW 5.8 mph - N/A   Overcast
11:53 AM 32.0 °F 25.6 °F 24.1 °F 73% 30.45 in 10.0 mi NNW 6.9 mph - N/A   Overcast
12:53 PM 32.0 °F 23.6 °F 24.1 °F 73% 30.42 in 10.0 mi North 10.4 mph - N/A   Overcast
3:53 PM 33.1 °F 26.9 °F 24.1 °F 70% 30.42 in 10.0 mi NNW 6.9 mph - N/A   Overcast
4:53 PM 32.0 °F 26.4 °F 26.1 °F 79% 30.42 in 10.0 mi NW 5.8 mph - N/A   Overcast
5:53 PM 32.0 °F 28.7 °F 26.1 °F 79% 30.43 in 10.0 mi NNW 3.5 mph - N/A   Overcast
6:53 PM 30.9 °F 22.8 °F 27.0 °F 85% 30.43 in 10.0 mi NNW 9.2 mph - N/A   Overcast
7:53 PM 30.9 °F 25.2 °F 27.0 °F 85% 30.43 in 10.0 mi NW 5.8 mph - N/A   Overcast
9:53 PM 30.0 °F 24.1 °F 25.0 °F 82% 30.41 in 10.0 mi NNW 5.8 mph - N/A   Overcast
10:53 PM 28.0 °F 20.8 °F 23.0 °F 81% 30.40 in 10.0 mi NNW 6.9 mph - N/A   Overcast